Weather History for Springfield, VT

Change the Weather History Date:

Thursday, December 6, 2012

  Actual Average Record
Temperature  
Mean Temperature 30 °F 29 °F  
Max Temperature 37 °F 37 °F 69 °F (2001)
Min Temperature 22 °F 21 °F 9 °F (2007)
Degree Days  
Heating Degree Days 35 36  
Month to date heating degree days 184 209  
Since 1 July heating degree days 1521 1852  
Moisture  
Dew Point 15 °F    
Average Humidity 62    
Maximum Humidity 84    
Minimum Humidity 40    
Precipitation  
Precipitation 0.00 in 0.11 in 0.39 in (2011)
Month to date precipitation 0.36 0.70  
Year to date precipitation 30.86 41.28  
Sea Level Pressure  
Sea Level Pressure 30.30 in    
Wind  
Wind Speed 2 mph (NNW)    
Max Wind Speed 16 mph    
Max Gust Speed 22 mph    
Visibility 10 miles    
Events      
T = Trace of Precipitation, MM = Missing Value Source: NWS Daily Summary

Daily Weather History Graph

Daily Weather History Graph

Search for Another Location

Airport:

Trip Planner

Search our weather history database for the weather conditions in past years. The results will help you decide how hot, cold, wet, or windy it might be!

Date:

Astronomy

Dec. 06, 2012 Rise Set
Actual Time 7:08 AM EST 4:14 PM EST
Civil Twilight 6:36 AM EST 4:46 PM EST
Nautical Twilight 6:00 AM EST 5:22 PM EST
Astronomical Twilight 5:25 AM EST 5:56 PM EST
Moon No Moon Rise 11:49 AM EST (12/6)
Length of Visible Light 10h 10m
Length of Day
9h 05m
Waning Gibbous, 49% of the Moon is Illuminated
Dec 6
Waning Gibbous
Dec 13
New
Dec 20
First Quarter
Dec 28
Full
Jan 4
Last Quarter

Hourly Weather History & Observations

Time (EST) Temp. Windchill Dew Point Humidity Pressure Visibility Wind Dir Wind Speed Gust Speed Precip Events Conditions
12:54 AM 28.0 °F 24.2 °F 12.0 °F 51% 30.22 in 10.0 mi Variable 3.5 mph - N/A   Overcast
1:54 AM 28.0 °F 22.8 °F 12.0 °F 51% 30.23 in 10.0 mi Variable 4.6 mph - N/A   Overcast
2:54 AM 28.0 °F - 12.9 °F 53% 30.26 in 10.0 mi Calm Calm - N/A   Overcast
3:54 AM 27.0 °F 23.0 °F 12.0 °F 53% 30.27 in 10.0 mi Variable 3.5 mph - N/A   Mostly Cloudy
4:54 AM 27.0 °F 18.7 °F 12.9 °F 56% 30.30 in 10.0 mi WNW 8.1 mph 18.4 mph N/A   Mostly Cloudy
5:54 AM 26.1 °F 18.4 °F 12.0 °F 55% 30.32 in 10.0 mi Variable 6.9 mph - N/A   Scattered Clouds
6:54 AM 25.0 °F 19.3 °F 12.0 °F 58% 30.34 in 10.0 mi Variable 4.6 mph - N/A   Clear
7:54 AM 26.1 °F 21.9 °F 12.9 °F 58% 30.36 in 10.0 mi NW 3.5 mph - N/A   Clear
9:54 AM 30.0 °F 23.2 °F 12.0 °F 47% 30.37 in 10.0 mi North 6.9 mph - N/A   Clear
10:54 AM 32.0 °F 25.6 °F 12.9 °F 45% 30.34 in 10.0 mi WNW 6.9 mph - N/A   Clear
11:54 AM 34.0 °F - 14.0 °F 44% 30.31 in 10.0 mi Calm Calm - N/A   Clear
12:54 PM 36.0 °F 32.1 °F 14.0 °F 41% 30.29 in 10.0 mi ENE 4.6 mph - N/A   Clear
1:54 PM 35.1 °F - 14.0 °F 42% 30.29 in 10.0 mi Calm Calm - N/A   Clear
2:54 PM 36.0 °F - 15.1 °F 43% 30.30 in 10.0 mi Calm Calm - N/A   Clear
3:54 PM 35.1 °F - 14.0 °F 42% 30.30 in 10.0 mi Calm Calm - N/A   Clear
4:54 PM 27.0 °F - 17.1 °F 66% 30.30 in 10.0 mi Calm Calm - N/A   Clear
5:54 PM 26.1 °F - 17.1 °F 69% 30.30 in 10.0 mi Calm Calm - N/A   Clear
6:54 PM 24.1 °F - 18.0 °F 77% 30.32 in 10.0 mi Calm Calm - N/A   Clear
7:54 PM 24.1 °F - 17.1 °F 75% 30.31 in 10.0 mi Calm Calm - N/A   Clear
8:54 PM 23.0 °F - 18.0 °F 81% 30.31 in 10.0 mi Calm Calm - N/A   Clear
9:54 PM 21.9 °F - 18.0 °F 85% 30.31 in 10.0 mi Calm Calm - N/A   Clear
10:54 PM 21.9 °F - 18.0 °F 85% 30.30 in 9.0 mi Calm Calm - N/A   Clear
11:54 PM 21.9 °F - 18.0 °F 85% 30.29 in 8.0 mi Calm Calm - N/A   Clear